QPF
0.01 0.00 0.00 0.01 0.01 0.01 0.02 0.03 0.05 0.05 0.05 0.04 0.02 0.02 0.02 0.02 0.02 0.03 0.09 0.09 0.05 0.08 0.12 0.09 0.09 0.07 0.06 0.05 0.05 0.05 0.05 0.06 0.06 0.07 0.07 0.08 0.10 0.12 0.13 0.20 0.20 0.19 0.17 0.13 0.13 0.14 0.12 0.09 0.07
0.01 0.01 0.01 0.00 0.01 0.01 0.02 0.04 0.06 0.05 0.03 0.02 0.01 0.01 0.01 0.01 0.01 0.03 0.07 0.07 0.05 0.07 0.07 0.06 0.07 0.07 0.06 0.05 0.05 0.06 0.06 0.06 0.06 0.07 0.07 0.08 0.09 0.12 0.13 0.18 0.14 0.13 0.12 0.12 0.12 0.14 0.12 0.08 0.07
0.01 0.01 0.00 0.01 0.01 0.02 0.03 0.05 0.06 0.04 0.02 0.02 0.01 0.01 0.01 0.02 0.02 0.04 0.04 0.04 0.05 0.06 0.05 0.06 0.07 0.06 0.06 0.07 0.08 0.09 0.08 0.06 0.05 0.05 0.06 0.07 0.09 0.11 0.11 0.12 0.12 0.12 0.11 0.12 0.11 0.11 0.09 0.06 0.06
0.00 0.00 0.00 0.01 0.01 0.02 0.03 0.04 0.03 0.01 0.01 0.01 0.01 0.02 0.02 0.03 0.02 0.03 0.03 0.02 0.02 0.04 0.05 0.05 0.06 0.07 0.06 0.07 0.08 0.10 0.08 0.06 0.06 0.07 0.07 0.07 0.08 0.10 0.09 0.09 0.14 0.17 0.13 0.11 0.10 0.08 0.07 0.05 0.04
0.00 0.00 0.00 0.00 0.01 0.01 0.02 0.02 0.02 0.02 0.02 0.02 0.02 0.03 0.04 0.03 0.02 0.02 0.02 0.01 0.01 0.02 0.03 0.04 0.04 0.05 0.06 0.07 0.07 0.08 0.07 0.06 0.07 0.08 0.09 0.09 0.09 0.09 0.09 0.10 0.15 0.19 0.13 0.10 0.09 0.07 0.06 0.05 0.04
0.00 0.01 0.01 0.00 0.01 0.01 0.01 0.01 0.02 0.02 0.02 0.02 0.03 0.04 0.05 0.03 0.01 0.01 0.00 0.01 0.01 0.01 0.02 0.02 0.03 0.04 0.05 0.05 0.06 0.07 0.08 0.08 0.09 0.10 0.09 0.08 0.08 0.10 0.12 0.12 0.18 0.20 0.14 0.11 0.08 0.07 0.07 0.07 0.05
0.00 0.01 0.01 0.00 0.00 0.01 0.01 0.01 0.01 0.01 0.01 0.02 0.02 0.02 0.03 0.02 0.02 0.01 0.01 0.01 0.01 0.01 0.01 0.02 0.03 0.03 0.04 0.07 0.08 0.08 0.10 0.10 0.10 0.11 0.09 0.09 0.11 0.10 0.11 0.12 0.16 0.19 0.13 0.11 0.09 0.09 0.07 0.07 0.06
0.00 0.00 0.00 0.00 0.00 0.01 0.01 0.01 0.01 0.01 0.01 0.02 0.03 0.02 0.03 0.02 0.02 0.02 0.01 0.01 0.03 0.03 0.03 0.03 0.02 0.02 0.04 0.06 0.08 0.09 0.10 0.09 0.08 0.08 0.08 0.10 0.11 0.10 0.08 0.08 0.12 0.13 0.09 0.10 0.11 0.11 0.09 0.07 0.06
0.00 0.00 0.00 0.00 0.00 0.01 0.00 0.01 0.01 0.01 0.02 0.02 0.04 0.04 0.03 0.02 0.02 0.03 0.01 0.02 0.02 0.02 0.03 0.04 0.03 0.02 0.02 0.03 0.05 0.08 0.08 0.06 0.05 0.06 0.07 0.08 0.09 0.08 0.07 0.07 0.11 0.10 0.08 0.09 0.11 0.11 0.10 0.08 0.06
0.00 0.00 0.00 0.01 0.00 0.00 0.00 0.01 0.01 0.01 0.02 0.02 0.03 0.03 0.02 0.02 0.02 0.01 0.02 0.03 0.02 0.02 0.03 0.03 0.03 0.02 0.01 0.02 0.03 0.06 0.05 0.05 0.05 0.06 0.06 0.07 0.07 0.07 0.06 0.09 0.12 0.11 0.13 0.12 0.12 0.11 0.09 0.06 0.06
0.00 0.00 0.00 0.00 0.00 0.00 0.00 0.01 0.01 0.01 0.03 0.02 0.02 0.03 0.03 0.02 0.01 0.02 0.03 0.04 0.03 0.01 0.02 0.01 0.01 0.02 0.02 0.02 0.02 0.03 0.04 0.05 0.05 0.05 0.04 0.04 0.04 0.06 0.10 0.15 0.17 0.18 0.15 0.14 0.13 0.10 0.08 0.05 0.07
0.00 0.00 0.00 0.00 0.00 0.00 0.00 0.00 0.01 0.01 0.02 0.02 0.02 0.02 0.02 0.02 0.02 0.02 0.02 0.03 0.03 0.02 0.02 0.01 0.02 0.02 0.01 0.02 0.02 0.03 0.03 0.05 0.05 0.04 0.03 0.03 0.05 0.06 0.10 0.14 0.13 0.13 0.12 0.12 0.11 0.09 0.08 0.08 0.06
0.00 0.00 0.00 0.00 0.00 0.00 0.00 0.00 0.00 0.01 0.01 0.01 0.01 0.01 0.01 0.02 0.02 0.02 0.02 0.02 0.02 0.01 0.01 0.02 0.02 0.02 0.01 0.02 0.02 0.02 0.04 0.04 0.04 0.05 0.05 0.04 0.05 0.06 0.08 0.08 0.07 0.07 0.06 0.08 0.08 0.08 0.10 0.10 0.09
0.00 0.00 0.00 0.00 0.00 0.00 0.00 0.00 0.00 0.01 0.02 0.01 0.01 0.00 0.01 0.01 0.01 0.01 0.02 0.02 0.02 0.01 0.03 0.03 0.03 0.02 0.01 0.02 0.03 0.04 0.05 0.05 0.05 0.05 0.04 0.04 0.05 0.06 0.07 0.08 0.07 0.04 0.03 0.06 0.08 0.09 0.12 0.12 0.11
0.00 0.00 0.00 0.00 0.00 0.00 0.00 0.00 0.00 0.00 0.01 0.01 0.01 0.00 0.00 0.00 0.01 0.02 0.02 0.02 0.02 0.02 0.03 0.03 0.02 0.02 0.02 0.03 0.03 0.04 0.05 0.06 0.07 0.07 0.06 0.06 0.06 0.08 0.09 0.08 0.07 0.05 0.04 0.05 0.07 0.07 0.07 0.07 0.07
0.00 0.00 0.00 0.00 0.00 0.00 0.00 0.00 0.00 0.00 0.00 0.00 0.00 0.01 0.00 0.00 0.01 0.01 0.02 0.02 0.01 0.02 0.03 0.03 0.02 0.03 0.03 0.04 0.05 0.04 0.05 0.07 0.08 0.09 0.09 0.10 0.09 0.08 0.10 0.09 0.10 0.09 0.08 0.06 0.06 0.07 0.07 0.08 0.08
0.01 0.01 0.00 0.00 0.00 0.00 0.00 0.00 0.00 0.00 0.00 0.00 0.00 0.00 0.01 0.00 0.00 0.01 0.01 0.02 0.01 0.02 0.04 0.05 0.03 0.03 0.03 0.04 0.04 0.04 0.05 0.06 0.07 0.11 0.13 0.12 0.09 0.07 0.08 0.11 0.12 0.09 0.10 0.09 0.06 0.06 0.06 0.08 0.09
0.00 0.00 0.00 0.00 0.00 0.00 0.00 0.00 0.00 0.00 0.00 0.00 0.00 0.00 0.01 0.01 0.00 0.00 0.00 0.01 0.02 0.04 0.05 0.04 0.04 0.04 0.04 0.04 0.05 0.06 0.06 0.06 0.07 0.13 0.21 0.17 0.13 0.11 0.11 0.12 0.11 0.09 0.11 0.11 0.07 0.06 0.05 0.06 0.07
0.00 0.00 0.00 0.00 0.00 0.00 0.00 0.00 0.00 0.00 0.00 0.00 0.00 0.00 0.00 0.01 0.01 0.00 0.00 0.00 0.02 0.08 0.09 0.04 0.04 0.05 0.05 0.06 0.07 0.08 0.09 0.09 0.09 0.14 0.22 0.21 0.15 0.13 0.13 0.13 0.10 0.08 0.10 0.09 0.06 0.06 0.05 0.05 0.05
0.00 0.00 0.00 0.00 0.00 0.00 0.00 0.00 0.00 0.00 0.00 0.00 0.00 0.00 0.00 0.00 0.00 0.00 0.00 0.00 0.01 0.04 0.04 0.03 0.03 0.04 0.04 0.05 0.06 0.09 0.10 0.13 0.12 0.12 0.18 0.19 0.14 0.13 0.12 0.10 0.08 0.07 0.07 0.08 0.08 0.06 0.05 0.04 0.04
0.00 0.00 0.00 0.00 0.00 0.00 0.00 0.00 0.00 0.00 0.00 0.00 0.00 0.00 0.00 0.00 0.00 0.00 0.00 0.00 0.00 0.01 0.02 0.03 0.05 0.03 0.03 0.04 0.07 0.08 0.09 0.11 0.09 0.10 0.14 0.12 0.09 0.08 0.06 0.06 0.06 0.06 0.05 0.07 0.07 0.07 0.06 0.06 0.05
0.00 0.00 0.00 0.00 0.00 0.00 0.00 0.00 0.00 0.00 0.00 0.00 0.00 0.00 0.00 0.00 0.00 0.00 0.00 0.01 0.01 0.02 0.02 0.03 0.03 0.02 0.02 0.03 0.07 0.08 0.08 0.07 0.06 0.06 0.06 0.05 0.04 0.04 0.03 0.04 0.04 0.04 0.04 0.06 0.05 0.07 0.09 0.09 0.07
0.00 0.00 0.00 0.00 0.00 0.00 0.00 0.00 0.00 0.00 0.00 0.00 0.00 0.00 0.00 0.00 0.00 0.00 0.00 0.01 0.01 0.01 0.02 0.02 0.02 0.02 0.02 0.04 0.06 0.06 0.05 0.05 0.04 0.04 0.04 0.05 0.04 0.03 0.03 0.03 0.04 0.04 0.04 0.05 0.05 0.06 0.07 0.08 0.08
0.00 0.00 0.00 0.00 0.00 0.00 0.00 0.00 0.00 0.00 0.00 0.00 0.00 0.00 0.00 0.00 0.00 0.00 0.00 0.01 0.01 0.01 0.02 0.02 0.03 0.03 0.03 0.02 0.03 0.03 0.03 0.03 0.03 0.03 0.03 0.03 0.03 0.03 0.03 0.03 0.03 0.04 0.03 0.04 0.05 0.05 0.05 0.07 0.08
0.00 0.00 0.01 0.01 0.01 0.00 0.00 0.00 0.00 0.00 0.00 0.00 0.00 0.00 0.00 0.00 0.00 0.00 0.00 0.00 0.01 0.02 0.02 0.02 0.03 0.02 0.02 0.02 0.02 0.02 0.02 0.02 0.02 0.01 0.01 0.01 0.02 0.02 0.02 0.02 0.03 0.02 0.02 0.04 0.04 0.05 0.05 0.06 0.07
0.00 0.00 0.00 0.01 0.01 0.00 0.00 0.00 0.00 0.00 0.00 0.00 0.00 0.00 0.00 0.00 0.00 0.00 0.00 0.00 0.01 0.01 0.02 0.02 0.02 0.01 0.01 0.01 0.01 0.02 0.02 0.02 0.01 0.01 0.01 0.01 0.01 0.02 0.02 0.02 0.03 0.02 0.01 0.02 0.03 0.03 0.04 0.05 0.06
0.00 0.00 0.00 0.01 0.01 0.00 0.00 0.00 0.00 0.00 0.00 0.00 0.00 0.00 0.00 0.00 0.00 0.00 0.00 0.00 0.00 0.01 0.01 0.01 0.00 0.00 0.01 0.01 0.01 0.02 0.02 0.02 0.02 0.02 0.01 0.01 0.01 0.01 0.01 0.02 0.02 0.02 0.01 0.03 0.04 0.04 0.05 0.07 0.07
0.00 0.00 0.00 0.00 0.00 0.00 0.00 0.00 0.00 0.00 0.00 0.00 0.00 0.00 0.00 0.00 0.00 0.00 0.00 0.00 0.00 0.01 0.01 0.00 0.00 0.00 0.00 0.01 0.01 0.03 0.03 0.03 0.02 0.01 0.01 0.00 0.01 0.01 0.01 0.01 0.02 0.01 0.02 0.04 0.05 0.04 0.04 0.06 0.06
0.00 0.00 0.00 0.00 0.00 0.00 0.00 0.00 0.00 0.00 0.00 0.00 0.00 0.00 0.00 0.00 0.00 0.00 0.00 0.00 0.01 0.01 0.00 0.00 0.00 0.00 0.01 0.01 0.02 0.03 0.03 0.05 0.02 0.01 0.01 0.01 0.01 0.01 0.01 0.01 0.01 0.01 0.02 0.03 0.04 0.03 0.03 0.03 0.03
0.00 0.00 0.00 0.00 0.00 0.01 0.00 0.00 0.00 0.00 0.00 0.00 0.00 0.00 0.00 0.00 0.00 0.00 0.00 0.00 0.01 0.01 0.00 0.00 0.01 0.01 0.01 0.01 0.02 0.03 0.02 0.01 0.01 0.01 0.01 0.01 0.01 0.01 0.01 0.01 0.01 0.01 0.02 0.03 0.03 0.02 0.02 0.02 0.03
MSLP
1005.01 1005.69 1006.54 1007.49 1008.44 1009.30 1010.01 1010.53 1010.88 1011.09 1011.22 1011.36 1011.55 1011.80 1012.10 1012.42 1012.70 1012.87 1012.94 1012.89 1012.77 1012.62 1012.52 1012.50 1012.59 1012.78 1013.05 1013.34 1013.61 1013.84 1014.01 1014.15 1014.27 1014.42 1014.62 1014.86 1015.13 1015.39 1015.61 1015.76 1015.81 1015.79 1015.72 1015.64 1015.58 1015.57 1015.61 1015.69 1015.78
1005.09 1005.90 1006.86 1007.87 1008.84 1009.68 1010.33 1010.75 1010.98 1011.06 1011.08 1011.13 1011.24 1011.45 1011.74 1012.06 1012.36 1012.58 1012.68 1012.69 1012.62 1012.55 1012.51 1012.57 1012.74 1013.02 1013.35 1013.70 1014.02 1014.28 1014.47 1014.60 1014.71 1014.84 1015.00 1015.20 1015.43 1015.66 1015.84 1015.96 1016.00 1015.97 1015.90 1015.83 1015.79 1015.80 1015.85 1015.92 1015.99
1005.33 1006.22 1007.23 1008.26 1009.21 1009.99 1010.55 1010.88 1011.00 1010.98 1010.92 1010.89 1010.96 1011.14 1011.42 1011.74 1012.05 1012.29 1012.43 1012.48 1012.46 1012.44 1012.47 1012.60 1012.84 1013.19 1013.59 1014.01 1014.38 1014.67 1014.88 1015.02 1015.13 1015.22 1015.35 1015.51 1015.69 1015.87 1016.01 1016.10 1016.14 1016.11 1016.07 1016.03 1016.02 1016.04 1016.10 1016.18 1016.23
1005.69 1006.61 1007.61 1008.60 1009.48 1010.18 1010.66 1010.90 1010.95 1010.87 1010.77 1010.71 1010.76 1010.94 1011.22 1011.54 1011.86 1012.11 1012.27 1012.34 1012.35 1012.37 1012.44 1012.61 1012.91 1013.30 1013.76 1014.22 1014.64 1014.97 1015.20 1015.35 1015.45 1015.53 1015.63 1015.74 1015.88 1016.01 1016.12 1016.20 1016.23 1016.23 1016.21 1016.21 1016.23 1016.29 1016.36 1016.43 1016.46
1006.10 1006.99 1007.93 1008.83 1009.62 1010.24 1010.63 1010.82 1010.83 1010.74 1010.64 1010.60 1010.67 1010.87 1011.16 1011.50 1011.82 1012.08 1012.24 1012.32 1012.34 1012.38 1012.47 1012.66 1012.97 1013.39 1013.86 1014.34 1014.78 1015.13 1015.38 1015.55 1015.65 1015.72 1015.80 1015.88 1015.98 1016.08 1016.17 1016.24 1016.28 1016.30 1016.32 1016.36 1016.41 1016.49 1016.58 1016.64 1016.65
1006.46 1007.28 1008.12 1008.91 1009.59 1010.12 1010.46 1010.61 1010.63 1010.58 1010.53 1010.55 1010.67 1010.91 1011.23 1011.59 1011.93 1012.19 1012.35 1012.43 1012.46 1012.49 1012.58 1012.76 1013.06 1013.46 1013.91 1014.38 1014.81 1015.16 1015.42 1015.59 1015.70 1015.78 1015.85 1015.92 1016.00 1016.08 1016.16 1016.22 1016.28 1016.32 1016.37 1016.44 1016.53 1016.62 1016.71 1016.76 1016.75
1006.72 1007.44 1008.15 1008.82 1009.39 1009.84 1010.14 1010.30 1010.36 1010.37 1010.41 1010.52 1010.72 1011.02 1011.39 1011.77 1012.12 1012.39 1012.57 1012.65 1012.68 1012.70 1012.77 1012.92 1013.18 1013.52 1013.93 1014.35 1014.74 1015.08 1015.33 1015.51 1015.63 1015.72 1015.79 1015.87 1015.94 1016.02 1016.09 1016.15 1016.21 1016.27 1016.35 1016.44 1016.54 1016.65 1016.74 1016.79 1016.77
1006.84 1007.45 1008.04 1008.59 1009.06 1009.44 1009.71 1009.90 1010.02 1010.12 1010.26 1010.47 1010.76 1011.13 1011.55 1011.97 1012.34 1012.62 1012.81 1012.90 1012.93 1012.95 1013.00 1013.11 1013.32 1013.60 1013.93 1014.29 1014.63 1014.93 1015.17 1015.35 1015.49 1015.59 1015.68 1015.76 1015.83 1015.90 1015.97 1016.03 1016.09 1016.16 1016.25 1016.35 1016.47 1016.59 1016.69 1016.73 1016.72
1006.84 1007.36 1007.84 1008.28 1008.67 1008.99 1009.25 1009.46 1009.65 1009.85 1010.08 1010.38 1010.76 1011.19 1011.65 1012.10 1012.49 1012.80 1013.00 1013.12 1013.16 1013.18 1013.22 1013.30 1013.45 1013.67 1013.93 1014.22 1014.51 1014.77 1015.00 1015.18 1015.32 1015.44 1015.54 1015.63 1015.70 1015.77 1015.82 1015.88 1015.93 1016.01 1016.10 1016.22 1016.35 1016.48 1016.59 1016.66 1016.66
1006.77 1007.22 1007.63 1007.99 1008.30 1008.58 1008.84 1009.07 1009.31 1009.58 1009.89 1010.27 1010.70 1011.18 1011.67 1012.13 1012.54 1012.87 1013.09 1013.23 1013.30 1013.34 1013.38 1013.44 1013.56 1013.73 1013.94 1014.18 1014.42 1014.65 1014.85 1015.03 1015.18 1015.31 1015.42 1015.51 1015.58 1015.64 1015.68 1015.72 1015.77 1015.84 1015.94 1016.07 1016.22 1016.38 1016.52 1016.62 1016.67
1006.71 1007.14 1007.50 1007.80 1008.06 1008.30 1008.54 1008.78 1009.05 1009.37 1009.73 1010.14 1010.61 1011.10 1011.59 1012.06 1012.47 1012.80 1013.04 1013.21 1013.30 1013.37 1013.43 1013.50 1013.61 1013.76 1013.94 1014.15 1014.36 1014.57 1014.76 1014.94 1015.09 1015.22 1015.34 1015.42 1015.48 1015.53 1015.56 1015.60 1015.64 1015.72 1015.83 1015.98 1016.16 1016.35 1016.54 1016.69 1016.79
1006.74 1007.17 1007.51 1007.77 1008.00 1008.20 1008.41 1008.65 1008.93 1009.25 1009.62 1010.04 1010.50 1010.98 1011.45 1011.90 1012.29 1012.61 1012.86 1013.04 1013.16 1013.26 1013.35 1013.45 1013.58 1013.74 1013.93 1014.13 1014.34 1014.54 1014.74 1014.91 1015.06 1015.19 1015.29 1015.37 1015.42 1015.46 1015.48 1015.51 1015.57 1015.66 1015.79 1015.97 1016.19 1016.43 1016.67 1016.88 1017.04
1006.91 1007.36 1007.69 1007.93 1008.12 1008.29 1008.48 1008.69 1008.94 1009.25 1009.60 1010.00 1010.42 1010.86 1011.29 1011.69 1012.04 1012.34 1012.57 1012.75 1012.90 1013.03 1013.16 1013.30 1013.47 1013.67 1013.89 1014.12 1014.35 1014.56 1014.76 1014.93 1015.07 1015.19 1015.27 1015.34 1015.38 1015.41 1015.44 1015.48 1015.56 1015.68 1015.85 1016.07 1016.33 1016.61 1016.90 1017.17 1017.40
1007.23 1007.70 1008.02 1008.25 1008.41 1008.55 1008.70 1008.87 1009.09 1009.35 1009.66 1010.01 1010.38 1010.76 1011.13 1011.47 1011.77 1012.02 1012.23 1012.40 1012.56 1012.71 1012.88 1013.08 1013.31 1013.56 1013.83 1014.11 1014.37 1014.61 1014.81 1014.98 1015.10 1015.19 1015.26 1015.30 1015.34 1015.37 1015.42 1015.49 1015.60 1015.76 1015.97 1016.24 1016.54 1016.87 1017.20 1017.52 1017.79
1007.62 1008.11 1008.43 1008.65 1008.79 1008.90 1009.00 1009.14 1009.30 1009.52 1009.77 1010.05 1010.36 1010.67 1010.97 1011.24 1011.49 1011.70 1011.87 1012.03 1012.19 1012.37 1012.58 1012.83 1013.12 1013.44 1013.78 1014.10 1014.41 1014.67 1014.88 1015.03 1015.13 1015.19 1015.23 1015.25 1015.28 1015.32 1015.40 1015.51 1015.67 1015.87 1016.13 1016.43 1016.77 1017.12 1017.48 1017.82 1018.14
1008.02 1008.50 1008.83 1009.04 1009.17 1009.26 1009.34 1009.43 1009.54 1009.69 1009.87 1010.08 1010.31 1010.55 1010.78 1011.00 1011.20 1011.37 1011.53 1011.69 1011.85 1012.06 1012.30 1012.61 1012.96 1013.34 1013.74 1014.12 1014.46 1014.74 1014.95 1015.08 1015.15 1015.17 1015.17 1015.17 1015.19 1015.25 1015.35 1015.51 1015.72 1015.98 1016.27 1016.60 1016.95 1017.32 1017.68 1018.03 1018.35
1008.33 1008.80 1009.13 1009.35 1009.49 1009.58 1009.64 1009.69 1009.74 1009.82 1009.91 1010.03 1010.18 1010.35 1010.52 1010.70 1010.87 1011.04 1011.20 1011.37 1011.56 1011.80 1012.09 1012.44 1012.85 1013.30 1013.75 1014.18 1014.55 1014.83 1015.03 1015.13 1015.15 1015.13 1015.09 1015.06 1015.07 1015.14 1015.28 1015.49 1015.74 1016.04 1016.37 1016.71 1017.06 1017.41 1017.76 1018.09 1018.41
1008.47 1008.94 1009.30 1009.55 1009.73 1009.84 1009.89 1009.90 1009.88 1009.86 1009.85 1009.86 1009.91 1010.00 1010.13 1010.29 1010.47 1010.66 1010.85 1011.07 1011.32 1011.61 1011.95 1012.36 1012.82 1013.31 1013.81 1014.26 1014.65 1014.94 1015.12 1015.19 1015.17 1015.09 1015.01 1014.95 1014.95 1015.03 1015.19 1015.43 1015.72 1016.05 1016.40 1016.74 1017.07 1017.39 1017.70 1018.02 1018.32
1008.41 1008.90 1009.31 1009.65 1009.89 1010.04 1010.09 1010.05 1009.95 1009.81 1009.66 1009.54 1009.47 1009.48 1009.56 1009.72 1009.93 1010.18 1010.46 1010.76 1011.09 1011.45 1011.86 1012.32 1012.83 1013.36 1013.89 1014.37 1014.77 1015.06 1015.22 1015.26 1015.20 1015.08 1014.96 1014.87 1014.85 1014.93 1015.10 1015.36 1015.68 1016.03 1016.37 1016.70 1017.01 1017.29 1017.57 1017.84 1018.13
1008.15 1008.70 1009.22 1009.66 1010.00 1010.21 1010.27 1010.18 1009.97 1009.67 1009.34 1009.05 1008.85 1008.76 1008.80 1008.97 1009.25 1009.60 1009.99 1010.42 1010.86 1011.31 1011.80 1012.31 1012.86 1013.42 1013.96 1014.46 1014.87 1015.16 1015.31 1015.34 1015.25 1015.11 1014.95 1014.84 1014.80 1014.87 1015.04 1015.31 1015.64 1015.99 1016.33 1016.64 1016.92 1017.16 1017.39 1017.64 1017.90
1007.75 1008.40 1009.05 1009.64 1010.10 1010.38 1010.45 1010.29 1009.94 1009.46 1008.93 1008.44 1008.06 1007.87 1007.87 1008.07 1008.43 1008.90 1009.45 1010.02 1010.59 1011.16 1011.72 1012.28 1012.85 1013.43 1013.98 1014.49 1014.90 1015.21 1015.38 1015.41 1015.33 1015.18 1015.02 1014.89 1014.83 1014.89 1015.05 1015.31 1015.63 1015.97 1016.30 1016.59 1016.84 1017.05 1017.25 1017.46 1017.70
1007.28 1008.05 1008.86 1009.61 1010.21 1010.56 1010.62 1010.38 1009.88 1009.19 1008.43 1007.72 1007.18 1006.87 1006.83 1007.06 1007.53 1008.15 1008.85 1009.58 1010.29 1010.97 1011.59 1012.20 1012.78 1013.35 1013.90 1014.41 1014.85 1015.18 1015.39 1015.47 1015.43 1015.31 1015.16 1015.03 1014.96 1015.00 1015.14 1015.37 1015.67 1015.99 1016.30 1016.58 1016.80 1016.99 1017.16 1017.34 1017.57
1006.81 1007.71 1008.67 1009.58 1010.29 1010.71 1010.75 1010.42 1009.75 1008.85 1007.87 1006.96 1006.25 1005.84 1005.78 1006.06 1006.63 1007.40 1008.27 1009.16 1009.99 1010.76 1011.44 1012.05 1012.62 1013.17 1013.71 1014.22 1014.69 1015.07 1015.34 1015.49 1015.52 1015.46 1015.35 1015.24 1015.18 1015.20 1015.31 1015.51 1015.77 1016.07 1016.35 1016.61 1016.81 1016.98 1017.14 1017.30 1017.50
1006.39 1007.39 1008.48 1009.49 1010.29 1010.74 1010.76 1010.33 1009.52 1008.44 1007.27 1006.18 1005.35 1004.87 1004.82 1005.16 1005.84 1006.75 1007.78 1008.80 1009.74 1010.56 1011.26 1011.87 1012.40 1012.92 1013.43 1013.94 1014.43 1014.87 1015.23 1015.48 1015.61 1015.63 1015.59 1015.52 1015.46 1015.46 1015.54 1015.70 1015.92 1016.17 1016.43 1016.67 1016.87 1017.03 1017.16 1017.30 1017.48
1006.05 1007.09 1008.23 1009.31 1010.14 1010.58 1010.56 1010.05 1009.12 1007.91 1006.61 1005.43 1004.53 1004.04 1004.02 1004.44 1005.24 1006.29 1007.44 1008.56 1009.58 1010.43 1011.12 1011.68 1012.16 1012.62 1013.09 1013.59 1014.10 1014.61 1015.06 1015.42 1015.67 1015.80 1015.84 1015.82 1015.78 1015.77 1015.81 1015.92 1016.09 1016.30 1016.53 1016.74 1016.93 1017.09 1017.22 1017.34 1017.48
1005.79 1006.80 1007.91 1008.96 1009.76 1010.16 1010.09 1009.51 1008.52 1007.25 1005.91 1004.71 1003.82 1003.38 1003.44 1003.97 1004.88 1006.04 1007.29 1008.49 1009.54 1010.39 1011.04 1011.53 1011.93 1012.32 1012.74 1013.22 1013.76 1014.32 1014.87 1015.34 1015.71 1015.95 1016.08 1016.11 1016.10 1016.07 1016.08 1016.14 1016.26 1016.43 1016.62 1016.82 1017.00 1017.15 1017.27 1017.38 1017.50
1005.61 1006.49 1007.48 1008.42 1009.12 1009.45 1009.31 1008.71 1007.71 1006.46 1005.17 1004.04 1003.25 1002.92 1003.10 1003.74 1004.77 1006.02 1007.33 1008.56 1009.61 1010.43 1011.02 1011.44 1011.76 1012.06 1012.43 1012.89 1013.44 1014.05 1014.67 1015.25 1015.72 1016.07 1016.28 1016.37 1016.38 1016.35 1016.33 1016.35 1016.42 1016.55 1016.71 1016.90 1017.07 1017.22 1017.34 1017.44 1017.53
1005.51 1006.18 1006.97 1007.71 1008.25 1008.46 1008.27 1007.66 1006.71 1005.57 1004.41 1003.44 1002.82 1002.65 1002.97 1003.74 1004.86 1006.17 1007.51 1008.74 1009.76 1010.52 1011.05 1011.39 1011.63 1011.87 1012.18 1012.61 1013.17 1013.81 1014.49 1015.15 1015.71 1016.14 1016.42 1016.57 1016.61 1016.58 1016.55 1016.54 1016.58 1016.67 1016.81 1016.98 1017.15 1017.31 1017.44 1017.54 1017.61
1005.49 1005.89 1006.39 1006.88 1007.22 1007.29 1007.03 1006.45 1005.60 1004.62 1003.67 1002.92 1002.51 1002.53 1003.00 1003.88 1005.06 1006.39 1007.73 1008.92 1009.89 1010.60 1011.06 1011.34 1011.53 1011.73 1012.00 1012.41 1012.96 1013.62 1014.34 1015.04 1015.66 1016.15 1016.50 1016.69 1016.77 1016.76 1016.73 1016.71 1016.73 1016.81 1016.94 1017.11 1017.29 1017.46 1017.59 1017.70 1017.77
1005.56 1005.64 1005.83 1006.03 1006.13 1006.04 1005.73 1005.18 1004.46 1003.68 1002.97 1002.46 1002.28 1002.49 1003.10 1004.06 1005.27 1006.58 1007.87 1009.01 1009.92 1010.58 1011.00 1011.25 1011.42 1011.59 1011.86 1012.26 1012.81 1013.47 1014.19 1014.92 1015.58 1016.11 1016.50 1016.75 1016.86 1016.90 1016.89 1016.88 1016.91 1017.00 1017.13 1017.30 1017.49 1017.67 1017.82 1017.94 1018.02
Thickness
5831 5833 5833 5827 5816 5801 5783 5785 5791 5787 5786 5791 5793 5790 5781 5775 5771 5760 5775 5783 5782 5781 5779 5776 5774 5774 5774 5774 5774 5774 5773 5773 5772 5771 5771 5771 5770 5769 5768 5766 5766 5765 5764 5763 5762 5761 5759 5758 5757
5839 5837 5831 5827 5809 5785 5777 5787 5786 5786 5790 5794 5793 5790 5783 5776 5779 5777 5779 5781 5782 5781 5780 5777 5773 5773 5772 5772 5772 5772 5772 5771 5771 5770 5770 5769 5768 5768 5767 5765 5765 5764 5763 5761 5760 5759 5758 5757 5755
5841 5839 5831 5822 5802 5786 5778 5786 5787 5791 5796 5795 5789 5789 5782 5773 5778 5779 5781 5782 5782 5781 5780 5775 5773 5772 5771 5771 5770 5770 5770 5769 5769 5768 5768 5767 5767 5766 5765 5764 5763 5762 5761 5760 5759 5758 5756 5755 5754
5842 5837 5833 5813 5791 5792 5792 5791 5794 5792 5793 5795 5791 5781 5780 5780 5783 5783 5783 5783 5782 5781 5780 5775 5772 5771 5771 5770 5769 5769 5768 5768 5767 5767 5766 5766 5765 5765 5764 5764 5762 5761 5760 5759 5758 5757 5755 5754 5753
5845 5837 5819 5801 5793 5795 5800 5800 5800 5792 5790 5791 5790 5777 5773 5780 5786 5785 5783 5783 5782 5781 5779 5775 5771 5770 5770 5769 5768 5768 5767 5767 5766 5765 5765 5765 5764 5764 5763 5763 5762 5760 5759 5758 5756 5755 5754 5752 5751
5841 5837 5811 5793 5790 5795 5800 5803 5800 5793 5790 5789 5787 5778 5773 5782 5783 5783 5784 5782 5783 5782 5780 5775 5771 5770 5769 5769 5768 5767 5766 5766 5765 5764 5764 5764 5763 5763 5763 5762 5761 5759 5758 5757 5755 5754 5753 5751 5750
5836 5828 5809 5801 5793 5792 5797 5805 5799 5793 5788 5789 5792 5780 5775 5779 5782 5784 5783 5783 5783 5782 5780 5778 5776 5772 5770 5768 5767 5766 5766 5765 5764 5763 5763 5763 5763 5762 5762 5761 5759 5758 5757 5756 5754 5753 5752 5751 5750
5847 5832 5812 5805 5797 5794 5803 5805 5803 5797 5790 5797 5796 5781 5774 5779 5784 5784 5782 5781 5780 5780 5780 5779 5777 5775 5774 5771 5768 5767 5766 5765 5764 5763 5763 5763 5763 5762 5761 5760 5759 5757 5756 5755 5754 5752 5751 5750 5749
5850 5827 5808 5806 5802 5799 5806 5802 5803 5806 5797 5794 5796 5792 5789 5786 5785 5782 5779 5778 5777 5778 5778 5778 5778 5776 5776 5774 5770 5768 5767 5765 5764 5764 5763 5763 5765 5765 5762 5760 5758 5757 5756 5755 5753 5752 5751 5750 5749
5843 5818 5811 5817 5817 5809 5806 5804 5803 5799 5791 5788 5788 5790 5790 5787 5784 5780 5777 5776 5776 5777 5778 5778 5777 5776 5776 5774 5772 5771 5770 5767 5766 5766 5765 5765 5764 5763 5763 5759 5757 5756 5755 5754 5752 5752 5751 5751 5752
5837 5821 5820 5821 5822 5818 5809 5806 5809 5799 5788 5790 5787 5786 5787 5785 5782 5780 5779 5779 5779 5779 5778 5778 5777 5776 5776 5774 5773 5771 5770 5768 5767 5765 5764 5764 5764 5764 5763 5761 5759 5757 5756 5756 5754 5753 5754 5753 5752
5831 5827 5827 5824 5824 5818 5812 5810 5805 5800 5797 5802 5799 5794 5789 5786 5783 5782 5781 5780 5781 5780 5778 5779 5777 5775 5774 5774 5774 5772 5771 5769 5768 5765 5764 5764 5764 5763 5763 5761 5760 5759 5757 5756 5755 5754 5753 5752 5751
5827 5825 5827 5827 5824 5821 5815 5809 5804 5800 5805 5806 5801 5795 5790 5788 5787 5786 5785 5784 5782 5780 5780 5779 5777 5775 5774 5772 5773 5773 5771 5770 5768 5766 5764 5764 5764 5763 5762 5760 5759 5759 5758 5756 5755 5754 5752 5751 5751
5831 5828 5825 5825 5822 5820 5812 5808 5806 5802 5807 5802 5797 5793 5792 5791 5789 5788 5786 5784 5783 5782 5781 5781 5778 5776 5774 5772 5771 5771 5771 5768 5768 5766 5765 5763 5763 5762 5761 5759 5758 5758 5757 5756 5755 5754 5752 5751 5750
5835 5823 5819 5821 5821 5819 5815 5801 5804 5808 5808 5800 5797 5795 5793 5793 5791 5789 5788 5786 5786 5785 5783 5781 5780 5778 5775 5774 5773 5772 5771 5770 5768 5766 5764 5763 5762 5761 5760 5760 5759 5758 5756 5755 5754 5753 5753 5752 5751
5829 5820 5808 5814 5820 5820 5812 5794 5806 5813 5808 5800 5798 5796 5794 5793 5794 5793 5792 5790 5789 5787 5784 5782 5783 5780 5776 5774 5773 5773 5772 5770 5769 5767 5766 5764 5762 5761 5760 5760 5759 5757 5756 5755 5754 5754 5753 5752 5751
5818 5809 5806 5809 5821 5821 5815 5803 5809 5814 5809 5803 5801 5799 5797 5795 5795 5796 5796 5794 5792 5789 5785 5782 5782 5780 5778 5776 5774 5773 5772 5770 5770 5769 5767 5765 5763 5761 5761 5760 5758 5757 5756 5755 5755 5754 5752 5749 5748
5810 5812 5809 5809 5818 5817 5812 5810 5813 5815 5812 5807 5805 5803 5800 5798 5798 5799 5798 5797 5794 5791 5787 5784 5782 5780 5779 5778 5775 5774 5773 5772 5771 5769 5767 5765 5764 5762 5762 5760 5758 5758 5756 5754 5752 5750 5749 5749 5748
5824 5816 5810 5814 5823 5816 5811 5811 5815 5816 5813 5810 5809 5806 5804 5803 5805 5804 5801 5799 5796 5792 5788 5786 5783 5781 5779 5778 5776 5774 5773 5772 5772 5770 5768 5766 5764 5763 5762 5762 5758 5757 5755 5753 5752 5750 5748 5747 5747
5821 5812 5810 5814 5820 5816 5813 5813 5821 5820 5816 5817 5814 5811 5809 5807 5806 5804 5802 5800 5797 5794 5790 5788 5784 5782 5780 5779 5777 5775 5774 5773 5772 5770 5767 5766 5765 5763 5763 5760 5759 5757 5754 5752 5750 5749 5748 5747 5748
5816 5814 5813 5811 5815 5818 5812 5808 5815 5822 5822 5821 5820 5818 5817 5813 5809 5806 5803 5802 5800 5796 5793 5792 5788 5785 5783 5781 5779 5776 5773 5772 5771 5768 5767 5766 5764 5762 5760 5759 5758 5756 5756 5752 5749 5748 5746 5745 5746
5809 5822 5819 5812 5807 5807 5810 5799 5812 5820 5818 5819 5820 5820 5819 5819 5816 5812 5808 5804 5803 5801 5798 5794 5790 5787 5784 5782 5779 5776 5772 5770 5769 5768 5767 5766 5763 5761 5760 5758 5757 5756 5756 5752 5750 5749 5747 5744 5743
5820 5826 5819 5814 5810 5808 5810 5804 5814 5822 5814 5820 5825 5825 5825 5824 5820 5816 5813 5809 5807 5805 5801 5797 5793 5788 5786 5783 5780 5777 5775 5773 5772 5770 5767 5765 5764 5762 5760 5758 5757 5755 5754 5752 5750 5748 5746 5745 5743
5822 5816 5812 5812 5811 5792 5804 5801 5805 5822 5821 5826 5830 5830 5828 5827 5824 5820 5818 5813 5809 5807 5804 5800 5794 5789 5787 5784 5781 5778 5775 5772 5770 5768 5766 5765 5764 5763 5761 5759 5757 5755 5754 5751 5749 5747 5746 5744 5742
5814 5802 5788 5784 5786 5791 5808 5802 5811 5830 5836 5835 5833 5833 5832 5831 5827 5822 5817 5812 5809 5806 5803 5800 5795 5790 5787 5785 5782 5779 5776 5773 5769 5768 5766 5765 5764 5762 5760 5760 5756 5755 5753 5751 5749 5746 5745 5743 5740
5808 5807 5789 5777 5782 5797 5800 5801 5822 5838 5840 5840 5839 5837 5834 5831 5829 5825 5821 5816 5811 5808 5804 5800 5796 5791 5788 5785 5782 5780 5777 5775 5772 5768 5767 5765 5764 5762 5760 5757 5755 5753 5752 5750 5748 5747 5744 5742 5740
5804 5807 5820 5804 5800 5795 5803 5812 5824 5835 5833 5835 5835 5834 5832 5832 5830 5827 5823 5819 5814 5809 5806 5802 5797 5793 5790 5787 5782 5779 5776 5773 5770 5768 5766 5765 5762 5761 5758 5756 5754 5752 5750 5748 5746 5744 5742 5740 5738
5817 5815 5806 5796 5778 5778 5793 5801 5810 5818 5824 5829 5830 5830 5831 5831 5830 5828 5825 5820 5816 5812 5808 5804 5799 5794 5791 5788 5784 5780 5776 5772 5769 5767 5764 5762 5760 5758 5756 5754 5752 5750 5748 5746 5744 5742 5740 5737 5735
5799 5801 5803 5803 5799 5785 5781 5798 5828 5825 5828 5828 5830 5831 5830 5830 5830 5828 5825 5822 5818 5814 5809 5803 5798 5794 5790 5787 5783 5779 5775 5772 5768 5764 5762 5760 5758 5756 5754 5752 5750 5748 5745 5744 5741 5740 5737 5735 5732
5805 5803 5801 5788 5785 5793 5794 5803 5832 5831 5834 5832 5830 5830 5830 5830 5830 5827 5824 5820 5816 5813 5809 5804 5799 5794 5791 5786 5782 5778 5774 5771 5766 5763 5760 5757 5755 5754 5752 5750 5747 5745 5743 5741 5739 5737 5735 5732 5729